Weather History for Christmas Island, IS

Change the Weather History Date:

Wednesday, July 31, 2013

  Actual Average Record
Temperature  
Mean Temperature 74 °F -  
Max Temperature 79 °F 76 °F 82 °F (1998)
Min Temperature 70 °F 69 °F 69 °F (2005)
Cooling Degree Days 10    
Growing Degree Days 24 (Base 50)    
Moisture  
Dew Point 70 °F    
Average Humidity 81    
Maximum Humidity 94    
Minimum Humidity 61    
Precipitation  
Precipitation 0.31 in - - ()
Sea Level Pressure  
Sea Level Pressure 29.89 in    
Wind  
Wind Speed 13 mph ()    
Max Wind Speed 18 mph    
Max Gust Speed -    
Visibility 6.2 miles    
Events      
Averages and records for this station are not official NWS values.
T = Trace of Precipitation, MM = Missing Value Source: Averaged Metar Reports

Daily Weather History Graph

Daily Weather History Graph

Search for Another Location

Airport:

Trip Planner

Search our weather history database for the weather conditions in past years. The results will help you decide how hot, cold, wet, or windy it might be!

Date:

Astronomy

Jul. 31, 2013 Rise Set
Actual Time 6:14 AM CXT 5:53 PM CXT
Civil Twilight 5:51 AM CXT 6:15 PM CXT
Nautical Twilight 5:26 AM CXT 6:40 PM CXT
Astronomical Twilight 5:01 AM CXT 7:06 PM CXT
Moon 12:43 AM CXT (7/31) 12:38 PM CXT (7/31)
Length of Visible Light 12h 23m
Length of Day
11h 39m
Last Quarter, 36% of the Moon is Illuminated
Jul 31
Last Quarter
Aug 7
New
Aug 14
First Quarter
Aug 21
Full
Aug 28
Last Quarter

Hourly Weather History & Observations

Time (CXT) Temp. Dew Point Humidity Pressure Visibility Wind Dir Wind Speed Gust Speed Precip Events Conditions
12:00 AM 72 °F 70 °F 91% 29.90 in - ESE 12.7 mph - -   Overcast
12:00 AM 71.6 °F 69.8 °F 94% 29.92 in - ESE 12.7 mph - N/A   Overcast
12:58 AM 73.4 °F 69.8 °F 88% 29.92 in - ESE 13.8 mph - N/A   Overcast
1:00 AM 73.4 °F 69.8 °F 88% 29.92 in - ESE 12.7 mph - N/A   Overcast
2:00 AM 73.4 °F 69.8 °F 88% 29.92 in 6.2 mi ESE 13.8 mph - N/A   Overcast
3:00 AM 73 °F 69 °F 84% 29.87 in - ESE 15.0 mph - -   Overcast
3:00 AM 73.4 °F 69.8 °F 88% 29.89 in - ESE 15.0 mph - N/A   Overcast
3:15 AM 73.4 °F 68.0 °F 83% 29.89 in 6.2 mi ESE 16.1 mph - N/A   Overcast
4:00 AM 73 °F 69 °F 82% 29.86 in - ESE 12.7 mph - -  
4:00 AM 73.4 °F 68.0 °F 83% 29.89 in - ESE 12.7 mph - N/A   Overcast
4:30 AM 75.2 °F 69.8 °F 83% 29.89 in - ESE 13.8 mph - N/A   Mostly Cloudy
5:00 AM 71.6 °F 69.8 °F 94% 29.89 in - SE 12.7 mph - N/A   Overcast
5:12 AM 71.6 °F 69.8 °F 94% 29.89 in - ESE 8.1 mph - N/A   Overcast
6:00 AM 73 °F 71 °F 91% 29.88 in - ESE 11.5 mph - -   Overcast
6:00 AM 73.4 °F 71.6 °F 94% 29.92 in - ESE 11.5 mph - N/A   Mostly Cloudy
7:00 AM 75 °F 69 °F 78% 29.89 in - ESE 15.0 mph - -  
7:00 AM 75.2 °F 69.8 °F 83% 29.92 in 6.2 mi ESE 15.0 mph - N/A   Mostly Cloudy
8:00 AM 75.2 °F 68.0 °F 78% 29.95 in 6.2 mi ESE 16.1 mph - N/A   Mostly Cloudy
9:00 AM 77 °F 67 °F 65% 29.92 in - ESE 17.3 mph - -  
9:00 AM 77.0 °F 68.0 °F 74% 29.95 in 6.2 mi ESE 17.3 mph - N/A   Scattered Clouds
10:00 AM 79 °F 68 °F 61% 29.91 in - ESE 18.4 mph - -  
10:00 AM 78.8 °F 68.0 °F 69% 29.95 in 6.2 mi ESE 18.4 mph - N/A   Scattered Clouds
11:00 AM 78.8 °F 68.0 °F 69% 29.92 in 6.2 mi ESE 17.3 mph - N/A   Scattered Clouds
12:00 PM 79 °F 69 °F 64% 29.88 in - ESE 17.3 mph - -  
12:00 PM 78.8 °F 69.8 °F 74% 29.92 in 6.2 mi ESE 17.3 mph - N/A   Scattered Clouds
1:00 PM 79 °F 69 °F 64% 29.86 in - ESE 16.1 mph - -  
1:00 PM 78.8 °F 69.8 °F 74% 29.89 in 6.2 mi ESE 16.1 mph - N/A   Mostly Cloudy
2:00 PM 78.8 °F 69.8 °F 74% 29.86 in 6.2 mi ESE 17.3 mph - N/A   Mostly Cloudy
3:00 PM 78 °F 69 °F 68% 29.83 in - ESE 15.0 mph - -   Overcast
3:00 PM 78.8 °F 69.8 °F 74% 29.86 in 6.2 mi ESE 15.0 mph - N/A   Mostly Cloudy
4:00 PM 77 °F 70 °F 73% 29.82 in - SE 13.8 mph - -  
4:00 PM 77.0 °F 69.8 °F 78% 29.86 in 6.2 mi SE 13.8 mph - N/A   Mostly Cloudy
5:00 PM 77.0 °F 69.8 °F 78% 29.86 in 6.2 mi ESE 13.8 mph - N/A   Mostly Cloudy
5:28 PM 75.2 °F 69.8 °F 83% 29.86 in 6.2 mi ESE 15.0 mph - N/A   Mostly Cloudy
6:00 PM 75 °F 70 °F 80% 29.85 in - ESE 12.7 mph - -   Overcast
6:00 PM 75.2 °F 69.8 °F 83% 29.89 in 6.2 mi ESE 12.7 mph - N/A   Mostly Cloudy
6:17 PM 75.2 °F 69.8 °F 83% 29.89 in 6.2 mi ESE 13.8 mph - N/A   Mostly Cloudy
6:24 PM 75.2 °F 69.8 °F 83% 29.89 in 6.2 mi SE 12.7 mph - N/A   Mostly Cloudy
7:00 PM 75 °F 71 °F 82% 29.87 in - ESE 12.7 mph - -  
7:00 PM 75.2 °F 69.8 °F 83% 29.89 in 6.2 mi ESE 12.7 mph - N/A   Overcast
8:00 PM 75.2 °F 69.8 °F 83% 29.92 in - ESE 13.8 mph - N/A   Overcast
9:00 PM 74 °F 70 °F 84% 29.90 in - ESE 12.7 mph - -  
9:00 PM 75.2 °F 69.8 °F 83% 29.92 in - ESE 12.7 mph - N/A   Mostly Cloudy
10:00 PM 74 °F 70 °F 82% 29.90 in - ESE 15.0 mph - -  
10:00 PM 75.2 °F 69.8 °F 83% 29.92 in - ESE 15.0 mph - N/A   Mostly Cloudy
11:00 PM 73.4 °F 71.6 °F 94% 29.92 in - ESE 13.8 mph - N/A   Overcast
11:43 PM 73.4 °F 69.8 °F 88% 29.92 in - ESE 11.5 mph - N/A   Overcast
11:58 PM 73.4 °F 69.8 °F 88% 29.92 in - SE 10.4 mph - N/A   Mostly Cloudy